Tracking 20083 objects as of 12-Dec-2019
HD Live streaming from Space Station
objects crossing your sky now

CZ-4B DEB


CZ-4B DEB is no longer on orbit


NORAD ID: 38319
Int'l Code: 2012-001F
Perigee: N/A
Apogee: N/A
Inclination: N/A
Period: N/A
Semi major axis: N/A
RCS: N/A
Launch date: January 9, 2012
Source: People's Republic of China (PRC)
Launch site: Taiyaun Space Center, China (TSC)
Decay date: 2012-06-01

Note: This is SATELLITE DEBRIS
aabbcc
Your satellite tracking list
Your tracking list is empty




NASA's NSSDC Master Catalog

Two Line Element Set (TLE):
1 38319U 12001F   12151.02420057  .01356572  95344-3  29928-2 0  9997
2 38319 097.5871 233.2226 0034876 249.9665 110.0032 15.97083538 19862
Source of the keplerian elements: AFSPC